SXN55A ENTO-BIKF

Flight info

Callsign SXN55A
Flight time 2h 40m
Altitude 43000
Route BAKIV DCT IPTON DCT H6310 DCT INACO Y194 NASBU NASBU4K
Aircraft E55P/M-SBDFGHJ2RWY/LB2

Departure

Time 2026-04-27 13:31
Airport Sandefjord Airport, Torp (ENTO)

Arrival

Time 2026-04-27 16:12
Airport Keflavik International Airport (BIKF)
Time Latitude Longitude Altitude Speed Heading
2026-04-27 13:08 59.17999 10.25185 336 ft 0 kts 179°
2026-04-27 13:23 59.18015 10.25185 337 ft 4 kts 179°
2026-04-27 13:23 59.18042 10.25185 337 ft 3 kts 179°
2026-04-27 13:23 59.18062 10.25179 338 ft 1 kts 155°
2026-04-27 13:24 59.18069 10.25170 338 ft 0 kts 138°
2026-04-27 13:24 59.18069 10.25171 338 ft 0 kts 138°
2026-04-27 13:24 59.18068 10.25173 338 ft 1 kts 137°
2026-04-27 13:24 59.18061 10.25186 338 ft 0 kts 112°
2026-04-27 13:26 59.18061 10.25188 338 ft 0 kts 94°
2026-04-27 13:26 59.18061 10.25196 337 ft 2 kts 86°
2026-04-27 13:27 59.18064 10.25243 336 ft 5 kts 85°
2026-04-27 13:27 59.18066 10.25351 332 ft 11 kts 88°
2026-04-27 13:27 59.18040 10.25527 323 ft 16 kts 160°
2026-04-27 13:27 59.17920 10.25541 323 ft 17 kts 180°
2026-04-27 13:28 59.17807 10.25614 320 ft 18 kts 145°
2026-04-27 13:28 59.17747 10.25695 315 ft 0 kts 146°
2026-04-27 13:30 59.17747 10.25696 314 ft 1 kts 146°
2026-04-27 13:30 59.17722 10.25728 312 ft 7 kts 146°
2026-04-27 13:30 59.17665 10.25808 307 ft 13 kts 131°
2026-04-27 13:30 59.17727 10.25883 304 ft 22 kts 360°
2026-04-27 13:31 59.18160 10.25872 308 ft 94 kts 358°
2026-04-27 13:31 59.18982 10.25866 409 ft 134 kts
2026-04-27 13:31 59.19960 10.25830 830 ft 151 kts 359°
2026-04-27 13:31 59.21097 10.25811 1327 ft 173 kts 359°
2026-04-27 13:32 59.22345 10.25780 2017 ft 185 kts 359°
2026-04-27 13:32 59.23674 10.25748 2800 ft 193 kts 359°
2026-04-27 13:32 59.25072 10.25718 3648 ft 199 kts 359°
2026-04-27 13:32 59.26434 10.25636 4485 ft 203 kts 350°
2026-04-27 13:33 59.27770 10.24429 5098 ft 222 kts 324°
2026-04-27 13:33 59.28913 10.22116 5842 ft 233 kts 310°
2026-04-27 13:33 59.29876 10.19557 6742 ft 234 kts 307°
2026-04-27 13:33 59.30822 10.16786 7682 ft 235 kts 306°
2026-04-27 13:34 59.31739 10.14024 8597 ft 236 kts 306°
2026-04-27 13:34 59.32655 10.11238 9457 ft 237 kts 306°
2026-04-27 13:34 59.33592 10.08380 10361 ft 238 kts 306°
2026-04-27 13:34 59.34492 10.05628 11182 ft 241 kts 307°
2026-04-27 13:35 59.35401 10.02848 11940 ft 245 kts 307°
2026-04-27 13:35 59.36351 9.99937 12726 ft 248 kts 306°
2026-04-27 13:35 59.37279 9.97087 13464 ft 251 kts 306°
2026-04-27 13:35 59.38229 9.94170 14215 ft 253 kts 306°
2026-04-27 13:36 59.39203 9.91172 14985 ft 255 kts 306°
2026-04-27 13:36 59.40153 9.88248 15709 ft 258 kts 306°
2026-04-27 13:36 59.41121 9.85255 16394 ft 261 kts 306°
2026-04-27 13:36 59.42125 9.82156 17099 ft 265 kts 306°
2026-04-27 13:37 59.43112 9.79103 17740 ft 269 kts 306°
2026-04-27 13:37 59.44121 9.75975 18417 ft 272 kts 306°
2026-04-27 13:37 59.45153 9.72774 19088 ft 275 kts 306°
2026-04-27 13:37 59.46174 9.69601 19728 ft 277 kts 306°
2026-04-27 13:38 59.47234 9.66305 20404 ft 279 kts 306°
2026-04-27 13:38 59.48266 9.63090 21036 ft 282 kts 306°
2026-04-27 13:38 59.49317 9.59812 21638 ft 285 kts 306°
2026-04-27 13:38 59.50408 9.56407 22244 ft 289 kts 306°
2026-04-27 13:39 59.51481 9.53048 22836 ft 291 kts 306°
2026-04-27 13:39 59.52554 9.49690 23451 ft 293 kts 306°
2026-04-27 13:39 59.53638 9.46292 24019 ft 296 kts 306°
2026-04-27 13:39 59.54729 9.42863 24573 ft 299 kts 305°
2026-04-27 13:40 59.55846 9.39353 25123 ft 302 kts 305°
2026-04-27 13:40 59.56964 9.35825 25673 ft 305 kts 305°
2026-04-27 13:40 59.58085 9.32282 26204 ft 308 kts 304°
2026-04-27 13:40 59.59233 9.28657 26726 ft 311 kts 304°
2026-04-27 13:41 59.60372 9.25048 27234 ft 313 kts 304°
2026-04-27 13:41 59.61522 9.21402 27760 ft 315 kts 304°
2026-04-27 13:41 59.62672 9.17752 28246 ft 317 kts 304°
2026-04-27 13:41 59.63853 9.13995 28700 ft 321 kts 304°
2026-04-27 13:42 59.65044 9.10205 29152 ft 324 kts 304°
2026-04-27 13:42 59.66241 9.06385 29615 ft 327 kts 304°
2026-04-27 13:42 59.67440 9.02549 30069 ft 329 kts 304°
2026-04-27 13:42 59.68658 8.98651 30493 ft 332 kts 304°
2026-04-27 13:43 59.69874 8.94751 30953 ft 334 kts 304°
2026-04-27 13:43 59.71100 8.90805 31475 ft 332 kts 304°
2026-04-27 13:43 59.72322 8.86870 31993 ft 330 kts 305°
2026-04-27 13:43 59.73514 8.83029 32441 ft 329 kts 305°
2026-04-27 13:44 59.74718 8.79144 32860 ft 329 kts 305°
2026-04-27 13:44 59.75925 8.75240 33290 ft 329 kts 305°
2026-04-27 13:44 59.77103 8.71426 33682 ft 328 kts 305°
2026-04-27 13:44 59.78283 8.67592 34111 ft 327 kts 305°
2026-04-27 13:45 59.79456 8.63779 34543 ft 325 kts 305°
2026-04-27 13:45 59.80621 8.59984 34926 ft 324 kts 305°
2026-04-27 13:45 59.81784 8.56197 35201 ft 324 kts 305°
2026-04-27 13:45 59.82949 8.52397 35444 ft 323 kts 305°
2026-04-27 13:46 59.84116 8.48579 35659 ft 324 kts 305°
2026-04-27 13:46 59.85282 8.44761 35852 ft 324 kts 305°
2026-04-27 13:46 59.86438 8.40965 36056 ft 324 kts 305°
2026-04-27 13:46 59.87596 8.37158 36277 ft 323 kts 305°
2026-04-27 13:47 59.88757 8.33332 36560 ft 322 kts 304°
2026-04-27 13:47 59.89906 8.29542 36834 ft 322 kts 304°
2026-04-27 13:47 59.91054 8.25753 37073 ft 323 kts 304°
2026-04-27 13:47 59.92213 8.21916 37309 ft 323 kts 304°
2026-04-27 13:48 59.93364 8.18103 37555 ft 323 kts 304°
2026-04-27 13:48 59.94511 8.14295 37787 ft 323 kts 304°
2026-04-27 13:48 59.95659 8.10474 38027 ft 323 kts 304°
2026-04-27 13:48 59.96804 8.06656 38256 ft 323 kts 304°
2026-04-27 13:49 59.97946 8.02844 38483 ft 322 kts 304°
2026-04-27 13:49 59.99088 7.99026 38709 ft 322 kts 304°
2026-04-27 13:49 60.00235 7.95188 38924 ft 321 kts 304°
2026-04-27 13:49 60.01382 7.91345 39126 ft 321 kts 304°
2026-04-27 13:50 60.02514 7.87544 39331 ft 321 kts 304°
2026-04-27 13:50 60.03651 7.83718 39543 ft 320 kts 304°
2026-04-27 13:50 60.04782 7.79905 39735 ft 320 kts 304°
2026-04-27 13:50 60.05911 7.76094 39875 ft 321 kts 304°
2026-04-27 13:51 60.07041 7.72273 40041 ft 322 kts 304°
2026-04-27 13:51 60.08180 7.68412 40209 ft 322 kts 304°
2026-04-27 13:51 60.09314 7.64566 40362 ft 322 kts 304°
2026-04-27 13:51 60.10448 7.60714 40541 ft 322 kts 304°
2026-04-27 13:52 60.11576 7.56873 40731 ft 321 kts 304°
2026-04-27 13:52 60.12699 7.53042 40910 ft 320 kts 304°
2026-04-27 13:52 60.13818 7.49223 41082 ft 320 kts 304°
2026-04-27 13:52 60.14940 7.45379 41226 ft 320 kts 304°
2026-04-27 13:53 60.17199 7.37635 41500 ft 321 kts 304°
2026-04-27 13:53 60.18314 7.33795 41650 ft 321 kts 303°
2026-04-27 13:53 60.19461 7.29851 41788 ft 321 kts 303°
2026-04-27 13:54 60.20579 7.25997 41908 ft 322 kts 303°
2026-04-27 13:54 60.21694 7.22140 42053 ft 321 kts 303°
2026-04-27 13:54 60.22811 7.18276 42200 ft 321 kts 303°
2026-04-27 13:54 60.23933 7.14378 42346 ft 320 kts 303°
2026-04-27 13:55 60.25046 7.10511 42491 ft 320 kts 303°
2026-04-27 13:55 60.26152 7.06664 42634 ft 319 kts 303°
2026-04-27 13:55 60.27253 7.02828 42782 ft 318 kts 303°
2026-04-27 13:55 60.28354 6.98985 42923 ft 317 kts 303°
2026-04-27 13:56 60.29448 6.95158 43061 ft 316 kts 303°
2026-04-27 13:56 60.30537 6.91347 43203 ft 315 kts 303°
2026-04-27 13:56 60.31631 6.87511 43266 ft 316 kts 302°
2026-04-27 13:57 60.33829 6.79778 43276 ft 323 kts 302°
2026-04-27 13:57 60.36068 6.71873 43275 ft 330 kts 302°
2026-04-27 13:58 60.38351 6.63782 43287 ft 337 kts 302°
2026-04-27 13:58 60.40681 6.55502 43292 ft 343 kts 302°
2026-04-27 13:59 60.43048 6.47056 43286 ft 350 kts 302°
2026-04-27 13:59 60.45467 6.38391 43285 ft 357 kts 302°
2026-04-27 14:00 60.47924 6.29560 43280 ft 364 kts 301°
2026-04-27 14:00 60.50412 6.20578 43275 ft 371 kts 301°
2026-04-27 14:01 60.52952 6.11370 43282 ft 377 kts 301°
2026-04-27 14:01 60.55514 6.02051 43296 ft 383 kts 301°
2026-04-27 14:02 60.58118 5.92536 43313 ft 388 kts 301°
2026-04-27 14:02 60.60747 5.82887 43333 ft 393 kts 301°
2026-04-27 14:03 60.63398 5.73121 43350 ft 398 kts 301°
2026-04-27 14:03 60.66079 5.63193 43359 ft 403 kts 301°
2026-04-27 14:04 60.68766 5.53199 43364 ft 403 kts 301°
2026-04-27 14:04 60.71439 5.43217 43368 ft 400 kts 301°
2026-04-27 14:05 60.74083 5.33301 43383 ft 397 kts 300°
2026-04-27 14:05 60.76713 5.23391 43400 ft 397 kts 301°
2026-04-27 14:06 60.79344 5.13438 43404 ft 402 kts 300°
2026-04-27 14:06 60.81997 5.03353 43399 ft 405 kts 300°
2026-04-27 14:07 60.84661 4.93178 43403 ft 406 kts 300°
2026-04-27 14:07 60.87313 4.83004 43400 ft 407 kts 300°
2026-04-27 14:08 60.89954 4.72832 43405 ft 406 kts 300°
2026-04-27 14:08 60.92584 4.62650 43402 ft 405 kts 300°
2026-04-27 14:09 60.95215 4.52415 43403 ft 406 kts 300°
2026-04-27 14:09 60.97823 4.42227 43415 ft 407 kts 300°
2026-04-27 14:10 61.00414 4.32054 43422 ft 407 kts 300°
2026-04-27 14:10 61.03032 4.21734 43419 ft 406 kts 300°
2026-04-27 14:11 61.05625 4.11463 43418 ft 404 kts 300°
2026-04-27 14:11 61.08185 4.01272 43417 ft 404 kts 300°
2026-04-27 14:12 61.10769 3.90939 43425 ft 405 kts 300°
2026-04-27 14:12 61.13350 3.80577 43429 ft 407 kts 300°
2026-04-27 14:13 61.15929 3.70167 43425 ft 407 kts 300°
2026-04-27 14:13 61.18477 3.59834 43423 ft 405 kts 300°
2026-04-27 14:14 61.21039 3.49389 43425 ft 404 kts 300°
2026-04-27 14:14 61.23574 3.39015 43426 ft 405 kts 300°
2026-04-27 14:15 61.26116 3.28560 43429 ft 407 kts 299°
2026-04-27 14:15 61.28662 3.18035 43428 ft 408 kts 299°
2026-04-27 14:16 61.31223 3.07396 43430 ft 407 kts 299°
2026-04-27 14:16 61.33756 2.96828 43434 ft 406 kts 299°
2026-04-27 14:17 61.36253 2.86359 43432 ft 405 kts 299°
2026-04-27 14:17 61.38757 2.75798 43436 ft 405 kts 299°
2026-04-27 14:18 61.41247 2.65264 43442 ft 406 kts 298°
2026-04-27 14:18 61.43747 2.54616 43447 ft 407 kts 298°
2026-04-27 14:19 61.46236 2.43972 43454 ft 407 kts 299°
2026-04-27 14:19 61.48704 2.33369 43453 ft 406 kts 298°
2026-04-27 14:20 61.51179 2.22676 43457 ft 407 kts 298°
2026-04-27 14:20 61.53637 2.12004 43456 ft 407 kts 298°
2026-04-27 14:21 61.56098 2.01271 43455 ft 406 kts 298°
2026-04-27 14:21 61.58530 1.90611 43455 ft 404 kts 298°
2026-04-27 14:22 61.60944 1.79979 43447 ft 405 kts 298°
2026-04-27 14:22 61.63361 1.69280 43445 ft 406 kts 298°
2026-04-27 14:23 61.65770 1.58552 43440 ft 405 kts 298°
2026-04-27 14:23 61.68163 1.47841 43442 ft 405 kts 298°
2026-04-27 14:24 61.70536 1.37173 43442 ft 404 kts 298°
2026-04-27 14:24 61.72894 1.26528 43451 ft 404 kts 297°
2026-04-27 14:25 61.75268 1.15752 43449 ft 405 kts 297°
2026-04-27 14:25 61.77631 1.04956 43447 ft 404 kts 297°
2026-04-27 14:26 61.79964 0.94253 43442 ft 402 kts 297°
2026-04-27 14:26 61.82297 0.83507 43438 ft 401 kts 297°
2026-04-27 14:27 61.84610 0.72779 43443 ft 403 kts 297°
2026-04-27 14:27 61.86926 0.61985 43440 ft 405 kts 297°
2026-04-27 14:28 61.89248 0.51120 43439 ft 404 kts 297°
2026-04-27 14:28 61.91538 0.40330 43439 ft 403 kts 297°
2026-04-27 14:29 61.93818 0.29538 43438 ft 401 kts 297°
2026-04-27 14:29 61.96088 0.18749 43442 ft 401 kts 296°
2026-04-27 14:30 61.98361 0.07878 43443 ft 400 kts 296°
2026-04-27 14:30 62.00636 -0.02862 43439 ft 399 kts 296°
2026-04-27 14:31 62.02697 -0.13824 43443 ft 401 kts 295°
2026-04-27 14:31 62.04822 -0.24884 43442 ft 405 kts 295°
2026-04-27 14:32 62.06945 -0.35952 43434 ft 402 kts 295°
2026-04-27 14:32 62.09030 -0.46879 43427 ft 398 kts 295°
2026-04-27 14:33 62.11107 -0.57831 43434 ft 398 kts 295°
2026-04-27 14:33 62.13208 -0.68945 43425 ft 404 kts 294°
2026-04-27 14:34 62.15287 -0.80021 43417 ft 404 kts 294°
2026-04-27 14:34 62.17359 -0.91133 43414 ft 400 kts 294°
2026-04-27 14:35 62.19411 -1.02184 43412 ft 399 kts 294°
2026-04-27 14:35 62.21455 -1.13255 43403 ft 400 kts 294°
2026-04-27 14:36 62.23497 -1.24385 43406 ft 402 kts 294°
2026-04-27 14:36 62.25519 -1.35465 43399 ft 400 kts 294°
2026-04-27 14:37 62.27533 -1.46566 43396 ft 398 kts 294°
2026-04-27 14:37 62.29535 -1.57662 43394 ft 399 kts 294°
2026-04-27 14:38 62.31537 -1.68827 43387 ft 402 kts 293°
2026-04-27 14:38 62.33573 -1.80248 43394 ft 402 kts 293°
2026-04-27 14:39 62.35566 -1.91500 43385 ft 400 kts 293°
2026-04-27 14:39 62.37525 -2.02618 43389 ft 400 kts 293°
2026-04-27 14:40 62.39491 -2.13832 43384 ft 401 kts 293°
2026-04-27 14:40 62.41455 -2.25120 43386 ft 400 kts 293°
2026-04-27 14:41 62.43402 -2.36357 43389 ft 399 kts 293°
2026-04-27 14:41 62.45331 -2.47584 43390 ft 399 kts 293°
2026-04-27 14:42 62.47248 -2.58789 43390 ft 400 kts 293°
2026-04-27 14:42 62.49158 -2.70022 43385 ft 401 kts 292°
2026-04-27 14:43 62.51087 -2.81438 43384 ft 401 kts 292°
2026-04-27 14:43 62.52998 -2.92809 43376 ft 400 kts 292°
2026-04-27 14:44 62.54883 -3.04105 43378 ft 399 kts 292°
2026-04-27 14:44 62.56761 -3.15420 43380 ft 397 kts 292°
2026-04-27 14:45 62.58615 -3.26665 43373 ft 397 kts 292°
2026-04-27 14:45 62.60492 -3.38119 43375 ft 398 kts 292°
2026-04-27 14:46 62.62348 -3.49504 43365 ft 400 kts 292°
2026-04-27 14:46 62.64181 -3.60837 43367 ft 399 kts 292°
2026-04-27 14:47 62.66027 -3.72325 43359 ft 397 kts 291°
2026-04-27 14:47 62.67876 -3.83871 43358 ft 396 kts 291°
2026-04-27 14:48 62.69736 -3.95587 43346 ft 397 kts 291°
2026-04-27 14:48 62.72433 -4.12716 43359 ft 398 kts 291°
2026-04-27 14:49 62.74242 -4.24286 43352 ft 398 kts 291°
2026-04-27 14:49 62.76020 -4.35753 43347 ft 397 kts 291°
2026-04-27 14:50 62.77783 -4.47162 43354 ft 394 kts 291°
2026-04-27 14:50 62.79523 -4.58528 43346 ft 393 kts 291°
2026-04-27 14:51 62.81275 -4.70025 43342 ft 394 kts 290°
2026-04-27 14:51 62.83086 -4.82009 43350 ft 396 kts 290°
2026-04-27 14:52 62.84883 -4.93963 43345 ft 395 kts 290°
2026-04-27 14:52 62.86650 -5.05807 43335 ft 392 kts 290°
2026-04-27 14:53 62.88368 -5.17394 43340 ft 390 kts 290°
2026-04-27 14:53 62.90115 -5.29262 43343 ft 392 kts 290°
2026-04-27 14:54 62.91836 -5.41040 43347 ft 395 kts 290°
2026-04-27 14:54 62.93555 -5.52877 43341 ft 395 kts 290°
2026-04-27 14:55 62.95233 -5.64515 43335 ft 392 kts 290°
2026-04-27 14:55 62.96963 -5.76604 43335 ft 392 kts 289°
2026-04-27 14:56 62.98655 -5.88491 43330 ft 394 kts 289°
2026-04-27 14:56 63.00334 -6.00395 43327 ft 396 kts 290°
2026-04-27 14:57 63.01994 -6.12237 43329 ft 396 kts 290°
2026-04-27 14:57 63.03663 -6.24235 43323 ft 392 kts 289°
2026-04-27 14:58 63.05267 -6.35842 43318 ft 390 kts 289°
2026-04-27 14:58 63.06857 -6.47441 43315 ft 392 kts 289°
2026-04-27 14:59 63.08466 -6.59238 43315 ft 394 kts 289°
2026-04-27 14:59 63.10099 -6.71330 43310 ft 394 kts 289°
2026-04-27 15:00 63.11748 -6.83613 43319 ft 393 kts 289°
2026-04-27 15:00 63.13324 -6.95436 43309 ft 393 kts 289°
2026-04-27 15:01 63.14932 -7.07585 43299 ft 392 kts 289°
2026-04-27 15:01 63.16474 -7.19333 43297 ft 391 kts 289°
2026-04-27 15:02 63.18001 -7.31051 43297 ft 389 kts 288°
2026-04-27 15:02 63.19503 -7.42666 43302 ft 389 kts 289°
2026-04-27 15:03 63.21008 -7.54392 43306 ft 390 kts 288°
2026-04-27 15:03 63.22529 -7.66330 43306 ft 390 kts 287°
2026-04-27 15:04 63.24072 -7.78534 43302 ft 390 kts 287°
2026-04-27 15:04 63.25594 -7.90675 43301 ft 388 kts 287°
2026-04-27 15:05 63.27088 -8.02677 43311 ft 386 kts 287°
2026-04-27 15:05 63.28558 -8.14569 43288 ft 386 kts 287°
2026-04-27 15:06 63.30010 -8.26423 43282 ft 387 kts 287°
2026-04-27 15:06 63.31466 -8.38394 43286 ft 387 kts 287°
2026-04-27 15:07 63.32899 -8.50280 43282 ft 386 kts 287°
2026-04-27 15:07 63.34342 -8.62328 43257 ft 385 kts 287°
2026-04-27 15:08 63.35775 -8.74399 43260 ft 384 kts 286°
2026-04-27 15:08 63.37172 -8.86253 43275 ft 385 kts 286°
2026-04-27 15:09 63.38598 -8.98486 43255 ft 387 kts 286°
2026-04-27 15:09 63.40073 -9.11214 43250 ft 387 kts 286°
2026-04-27 15:10 63.41443 -9.23142 43233 ft 385 kts 286°
2026-04-27 15:10 63.42824 -9.35241 43231 ft 384 kts 286°
2026-04-27 15:11 63.44193 -9.47387 43240 ft 383 kts 286°
2026-04-27 15:11 63.45572 -9.59699 43236 ft 384 kts 286°
2026-04-27 15:12 63.46894 -9.71613 43229 ft 385 kts 285°
2026-04-27 15:12 63.48225 -9.83709 43236 ft 382 kts 285°
2026-04-27 15:13 63.49544 -9.95791 43229 ft 380 kts 285°
2026-04-27 15:13 63.50581 -10.08314 43233 ft 384 kts 280°
2026-04-27 15:14 63.51442 -10.20987 43225 ft 389 kts 281°
2026-04-27 15:14 63.52305 -10.33791 43225 ft 389 kts 280°
2026-04-27 15:15 63.53147 -10.46479 43215 ft 385 kts 280°
2026-04-27 15:15 63.53976 -10.59084 43215 ft 379 kts 280°
2026-04-27 15:16 63.54762 -10.71280 43212 ft 379 kts 279°
2026-04-27 15:16 63.55571 -10.83954 43213 ft 388 kts 279°
2026-04-27 15:17 63.56404 -10.97193 43200 ft 392 kts 279°
2026-04-27 15:17 63.57175 -11.09653 43196 ft 386 kts 279°
2026-04-27 15:18 63.57936 -11.22144 43190 ft 380 kts 279°
2026-04-27 15:18 63.58694 -11.34773 43191 ft 378 kts 279°
2026-04-27 15:19 63.59465 -11.47809 43193 ft 383 kts 279°
2026-04-27 15:19 63.60189 -11.60210 43183 ft 391 kts 279°
2026-04-27 15:20 63.60925 -11.73102 43170 ft 389 kts 278°
2026-04-27 15:20 63.61662 -11.86121 43167 ft 383 kts 278°
2026-04-27 15:21 63.62402 -11.99457 43169 ft 378 kts 277°
2026-04-27 15:21 63.63070 -12.11716 43166 ft 381 kts 278°
2026-04-27 15:22 63.63760 -12.24583 43163 ft 389 kts 277°
2026-04-27 15:22 63.64463 -12.37904 43151 ft 389 kts 277°
2026-04-27 15:23 63.65128 -12.50745 43139 ft 383 kts 277°
2026-04-27 15:23 63.65767 -12.63329 43139 ft 380 kts 277°
2026-04-27 15:24 63.66408 -12.76135 43146 ft 381 kts 276°
2026-04-27 15:24 63.67067 -12.89596 43145 ft 386 kts 276°
2026-04-27 15:25 63.67668 -13.02088 43134 ft 386 kts 276°
2026-04-27 15:25 63.68276 -13.14953 43125 ft 384 kts 276°
2026-04-27 15:26 63.68871 -13.27832 43120 ft 383 kts 276°
2026-04-27 15:26 63.69462 -13.40851 43124 ft 384 kts 276°
2026-04-27 15:27 63.70022 -13.53392 43113 ft 385 kts 276°
2026-04-27 15:27 63.70584 -13.66332 43104 ft 385 kts 275°
2026-04-27 15:28 63.71137 -13.79288 43104 ft 386 kts 275°
2026-04-27 15:28 63.71662 -13.91860 43092 ft 386 kts 275°
2026-04-27 15:29 63.72181 -14.04564 43093 ft 385 kts 275°
2026-04-27 15:29 63.72705 -14.17659 43093 ft 383 kts 275°
2026-04-27 15:30 63.73213 -14.30649 43092 ft 383 kts 274°
2026-04-27 15:30 63.73688 -14.43167 43092 ft 383 kts 274°
2026-04-27 15:31 63.74164 -14.55889 43084 ft 384 kts 274°
2026-04-27 15:31 63.74627 -14.68651 43072 ft 386 kts 273°
2026-04-27 15:32 63.75076 -14.81302 43072 ft 386 kts 273°
2026-04-27 15:32 63.75510 -14.93797 43069 ft 383 kts 273°
2026-04-27 15:33 63.75932 -15.06343 43065 ft 381 kts 273°
2026-04-27 15:33 63.76337 -15.18678 43069 ft 382 kts 273°
2026-04-27 15:34 63.76733 -15.31045 43072 ft 387 kts 273°
2026-04-27 15:34 63.77117 -15.43411 43068 ft 389 kts 273°
2026-04-27 15:35 63.77498 -15.56031 43064 ft 386 kts 273°
2026-04-27 15:35 63.77862 -15.68390 43066 ft 382 kts 271°
2026-04-27 15:36 63.78215 -15.80771 43066 ft 382 kts 271°
2026-04-27 15:36 63.78551 -15.92974 43063 ft 385 kts 271°
2026-04-27 15:37 63.78885 -16.05376 43049 ft 388 kts 271°
2026-04-27 15:37 63.79207 -16.17816 43049 ft 386 kts 271°
2026-04-27 15:38 63.79511 -16.29965 43034 ft 386 kts 271°
2026-04-27 15:38 63.79806 -16.42043 43044 ft 386 kts 271°
2026-04-27 15:39 63.80091 -16.54268 43030 ft 387 kts 271°
2026-04-27 15:39 63.80463 -16.66448 43021 ft 391 kts 278°
2026-04-27 15:40 63.81087 -16.78719 43037 ft 388 kts 274°
2026-04-27 15:40 63.81681 -16.90824 43040 ft 388 kts 274°
2026-04-27 15:41 63.82284 -17.03115 43045 ft 390 kts 274°
2026-04-27 15:41 63.82910 -17.16065 43033 ft 392 kts 273°
2026-04-27 15:42 63.83494 -17.28318 43028 ft 390 kts 274°
2026-04-27 15:42 63.84072 -17.40693 43028 ft 389 kts 273°
2026-04-27 15:43 63.84652 -17.53430 43006 ft 390 kts 273°
2026-04-27 15:43 63.85204 -17.65675 42997 ft 391 kts 272°
2026-04-27 15:44 63.85745 -17.77959 43013 ft 390 kts 272°
2026-04-27 15:44 63.86279 -17.90221 42902 ft 392 kts 272°
2026-04-27 15:45 63.86553 -17.96681 42346 ft 403 kts 272°
2026-04-27 15:45 63.86824 -18.03024 41833 ft 406 kts 272°
2026-04-27 15:45 63.87087 -18.09327 41307 ft 402 kts 271°
2026-04-27 15:45 63.87352 -18.15787 40760 ft 395 kts 271°
2026-04-27 15:46 63.87610 -18.22037 40209 ft 389 kts 271°
2026-04-27 15:46 63.87852 -18.28040 39516 ft 381 kts 270°
2026-04-27 15:46 63.88093 -18.33983 38882 ft 375 kts 270°
2026-04-27 15:46 63.88323 -18.39894 38315 ft 374 kts 270°
2026-04-27 15:47 63.88556 -18.45880 37773 ft 379 kts 270°
2026-04-27 15:47 63.88794 -18.52043 37219 ft 390 kts 270°
2026-04-27 15:47 63.89027 -18.58204 36686 ft 400 kts 270°
2026-04-27 15:47 63.89282 -18.64822 36178 ft 402 kts 270°
2026-04-27 15:48 63.89524 -18.71334 35681 ft 400 kts 269°
2026-04-27 15:48 63.89757 -18.77568 35187 ft 397 kts 268°
2026-04-27 15:48 63.90009 -18.84456 34620 ft 393 kts 268°
2026-04-27 15:49 63.90444 -18.96732 33545 ft 386 kts 268°
2026-04-27 15:49 63.90658 -19.02774 33015 ft 383 kts 268°
2026-04-27 15:49 63.90870 -19.08819 32494 ft 380 kts 268°
2026-04-27 15:49 63.91069 -19.14764 31979 ft 380 kts 268°
2026-04-27 15:50 63.91278 -19.20811 31470 ft 382 kts 268°
2026-04-27 15:50 63.91475 -19.26758 30971 ft 387 kts 268°
2026-04-27 15:50 63.91677 -19.32884 30455 ft 393 kts 268°
2026-04-27 15:50 63.91878 -19.39182 29927 ft 397 kts 268°
2026-04-27 15:51 63.92083 -19.45400 29423 ft 400 kts 268°
2026-04-27 15:51 63.92285 -19.51748 28894 ft 403 kts 268°
2026-04-27 15:51 63.92490 -19.58260 28360 ft 404 kts 268°
2026-04-27 15:51 63.92691 -19.64720 27811 ft 404 kts 268°
2026-04-27 15:52 63.92888 -19.71276 27264 ft 404 kts 267°
2026-04-27 15:52 63.93082 -19.77598 26734 ft 403 kts 266°
2026-04-27 15:52 63.93273 -19.84134 26187 ft 400 kts 266°
2026-04-27 15:52 63.93470 -19.90885 25621 ft 398 kts 266°
2026-04-27 15:53 63.93653 -19.97165 25096 ft 394 kts 266°
2026-04-27 15:53 63.93820 -20.03329 24586 ft 391 kts 266°
2026-04-27 15:53 63.93999 -20.09660 24053 ft 387 kts 266°
2026-04-27 15:53 63.94169 -20.15766 23534 ft 383 kts 266°
2026-04-27 15:54 63.94339 -20.22109 22988 ft 378 kts 266°
2026-04-27 15:54 63.94494 -20.28096 22476 ft 374 kts 265°
2026-04-27 15:54 63.94651 -20.34112 21968 ft 369 kts 265°
2026-04-27 15:54 63.94825 -20.40364 21440 ft 365 kts 266°
2026-04-27 15:55 63.94977 -20.46095 20960 ft 361 kts 265°
2026-04-27 15:55 63.95137 -20.52116 20459 ft 358 kts 265°
2026-04-27 15:55 63.95292 -20.58160 19958 ft 355 kts 265°
2026-04-27 15:55 63.95438 -20.63740 19499 ft 356 kts 265°
2026-04-27 15:56 63.95577 -20.69483 19023 ft 358 kts 264°
2026-04-27 15:56 63.95723 -20.75179 18551 ft 358 kts 264°
2026-04-27 15:56 63.95867 -20.80999 18058 ft 359 kts 264°
2026-04-27 15:56 63.96007 -20.86912 17570 ft 359 kts 264°
2026-04-27 15:57 63.96146 -20.92568 17090 ft 356 kts 264°
2026-04-27 15:57 63.96286 -20.98516 16589 ft 341 kts 264°
2026-04-27 15:57 63.96418 -21.04210 16104 ft 329 kts 263°
2026-04-27 15:57 63.96534 -21.09286 15685 ft 316 kts 264°
2026-04-27 15:58 63.96646 -21.14254 15252 ft 305 kts 263°
2026-04-27 15:58 63.96757 -21.19377 14822 ft 296 kts 263°
2026-04-27 15:58 63.96854 -21.24052 14429 ft 288 kts 263°
2026-04-27 15:58 63.96962 -21.28928 14017 ft 281 kts 263°
2026-04-27 15:59 63.97049 -21.33392 13645 ft 277 kts 263°
2026-04-27 15:59 63.97143 -21.37953 13262 ft 274 kts 263°
2026-04-27 15:59 63.97237 -21.42623 12872 ft 272 kts 262°
2026-04-27 15:59 63.97354 -21.46947 12505 ft 276 kts 269°
2026-04-27 16:00 63.98135 -21.51314 12140 ft 291 kts 286°
2026-04-27 16:00 63.99065 -21.55846 11715 ft 289 kts 284°
2026-04-27 16:00 63.99916 -21.60011 11367 ft 286 kts 284°
2026-04-27 16:00 64.00785 -21.64311 11053 ft 283 kts 284°
2026-04-27 16:01 64.01645 -21.68585 10705 ft 282 kts 283°
2026-04-27 16:01 64.02460 -21.72618 10356 ft 283 kts 283°
2026-04-27 16:01 64.03383 -21.77237 9953 ft 284 kts 283°
2026-04-27 16:01 64.04250 -21.81565 9571 ft 284 kts 283°
2026-04-27 16:02 64.05083 -21.85723 9197 ft 285 kts 283°
2026-04-27 16:02 64.05997 -21.90318 8788 ft 285 kts 284°
2026-04-27 16:02 64.06876 -21.94705 8387 ft 284 kts 284°
2026-04-27 16:02 64.07692 -21.98828 8007 ft 283 kts 284°
2026-04-27 16:03 64.08584 -22.03324 7595 ft 282 kts 284°
2026-04-27 16:03 64.09433 -22.07626 7198 ft 280 kts 284°
2026-04-27 16:03 64.10238 -22.11695 6822 ft 279 kts 285°
2026-04-27 16:03 64.11054 -22.15823 6423 ft 273 kts 284°
2026-04-27 16:04 64.11835 -22.19789 6045 ft 263 kts 283°
2026-04-27 16:04 64.12615 -22.23750 5681 ft 254 kts 284°
2026-04-27 16:04 64.13365 -22.27579 5431 ft 243 kts 283°
2026-04-27 16:04 64.14040 -22.31031 5145 ft 235 kts 282°
2026-04-27 16:05 64.14725 -22.34555 4842 ft 228 kts 284°
2026-04-27 16:05 64.15396 -22.38000 4551 ft 227 kts 283°
2026-04-27 16:05 64.16014 -22.41285 4269 ft 226 kts 277°
2026-04-27 16:05 64.15969 -22.44728 4000 ft 199 kts 240°
2026-04-27 16:06 64.15454 -22.47898 3688 ft 203 kts 241°
2026-04-27 16:06 64.14968 -22.51043 3362 ft 200 kts 240°
2026-04-27 16:06 64.14483 -22.54167 3055 ft 195 kts 240°
2026-04-27 16:06 64.14020 -22.57070 2810 ft 189 kts 241°
2026-04-27 16:07 64.13409 -22.59570 2755 ft 156 kts 211°
2026-04-27 16:07 64.12398 -22.60310 2599 ft 138 kts 180°
2026-04-27 16:07 64.11461 -22.60414 2481 ft 135 kts 182°
2026-04-27 16:07 64.10423 -22.60505 2391 ft 131 kts 179°
2026-04-27 16:08 64.09385 -22.60540 2191 ft 136 kts 178°
2026-04-27 16:08 64.08433 -22.60546 2007 ft 136 kts 178°
2026-04-27 16:08 64.07468 -22.60561 1806 ft 132 kts 177°
2026-04-27 16:08 64.06551 -22.60558 1599 ft 125 kts 176°
2026-04-27 16:09 64.05703 -22.60554 1477 ft 113 kts 176°
2026-04-27 16:09 64.04306 -22.60561 1171 ft 83 kts 175°
2026-04-27 16:09 64.03744 -22.60557 1027 ft 78 kts 174°
2026-04-27 16:10 64.02498 -22.60554 823 ft 85 kts 174°
2026-04-27 16:10 64.01346 -22.60543 592 ft 77 kts 175°
2026-04-27 16:11 64.00748 -22.60540 540 ft 91 kts 175°
2026-04-27 16:11 63.99526 -22.60585 198 ft 81 kts 175°
2026-04-27 16:12 63.98464 -22.60539 127 ft 60 kts 180°
2026-04-27 16:12 63.98094 -22.60540 132 ft 48 kts 179°
2026-04-27 16:12 63.97482 -22.60550 122 ft 28 kts 177°
2026-04-27 16:13 63.97375 -22.60353 123 ft 20 kts 116°
2026-04-27 16:13 63.97360 -22.59842 134 ft 14 kts 21°
2026-04-27 16:13 63.97433 -22.59718 140 ft 12 kts 106°
2026-04-27 16:14 63.97578 -22.59610 151 ft 14 kts 53°
2026-04-27 16:14 63.97517 -22.59201 160 ft 16 kts 104°
2026-04-27 16:15 63.97491 -22.59043 159 ft 0 kts 111°
2026-04-27 16:32 63.97506 -22.59050 160 ft 4 kts 306°
2026-04-27 16:32 63.97538 -22.59127 162 ft 9 kts 335°
2026-04-27 16:33 63.97650 -22.59116 166 ft 12 kts
2026-04-27 16:33 63.97750 -22.59107 168 ft 14 kts 347°
2026-04-27 16:33 63.97831 -22.59054 170 ft 13 kts 69°
2026-04-27 16:33 63.97898 -22.58885 166 ft 17 kts 25°
2026-04-27 16:34 63.98045 -22.58877 163 ft 21 kts 345°
2026-04-27 16:34 63.98184 -22.59018 162 ft 22 kts 334°
2026-04-27 16:34 63.98339 -22.59166 156 ft 25 kts 338°
2026-04-27 16:34 63.98541 -22.59298 145 ft 30 kts
2026-04-27 16:35 63.98759 -22.59319 134 ft 33 kts 344°
2026-04-27 16:35 63.98980 -22.59620 124 ft 35 kts 317°
2026-04-27 16:35 63.99171 -22.60257 116 ft 13 kts 271°
2026-04-27 16:36 63.99163 -22.60487 116 ft 13 kts 232°
2026-04-27 16:36 63.99046 -22.60546 119 ft 39 kts 180°
2026-04-27 16:36 63.98452 -22.60538 170 ft 121 kts 177°
2026-04-27 16:36 63.97489 -22.60570 858 ft 153 kts 178°
2026-04-27 16:37 63.96390 -22.60532 2064 ft 165 kts 174°
2026-04-27 16:37 63.95517 -22.60365 3889 ft 122 kts 179°
2026-04-27 16:37 63.94417 -22.60039 4104 ft 182 kts 176°
2026-04-27 16:37 63.93056 -22.59976 4797 ft 214 kts 195°
2026-04-27 16:38 63.91470 -22.60750 5656 ft 238 kts 191°
2026-04-27 16:38 63.89989 -22.62755 6770 ft 263 kts 232°
2026-04-27 16:38 63.89696 -22.66549 9243 ft 247 kts 265°
2026-04-27 16:38 63.89671 -22.70200 10795 ft 203 kts 247°
2026-04-27 16:39 63.89444 -22.73573 11173 ft 225 kts 250°
2026-04-27 16:39 63.89234 -22.77308 11736 ft 237 kts 251°
2026-04-27 16:39 63.89015 -22.81299 12694 ft 233 kts 251°
2026-04-27 16:39 63.88812 -22.84889 13487 ft 233 kts 251°
2026-04-27 16:40 63.88581 -22.88853 14250 ft 236 kts 251°
2026-04-27 16:40 63.88367 -22.92574 14944 ft 236 kts 251°
2026-04-27 16:40 63.88150 -22.96369 15648 ft 237 kts 251°
2026-04-27 16:40 63.87912 -23.00405 16260 ft 241 kts 250°
2026-04-27 16:41 63.87690 -23.04246 16889 ft 242 kts 250°
2026-04-27 16:41 63.87450 -23.08315 17611 ft 240 kts 250°
2026-04-27 16:41 63.87194 -23.12691 18224 ft 244 kts 250°
2026-04-27 16:41 63.86965 -23.16481 18776 ft 246 kts 250°
2026-04-27 16:42 63.86717 -23.20731 19370 ft 248 kts 250°
2026-04-27 16:42 63.86462 -23.24959 20055 ft 246 kts 250°
2026-04-27 16:42 63.86218 -23.29028 20592 ft 249 kts 250°
2026-04-27 16:42 63.85937 -23.33668 21149 ft 253 kts 250°
2026-04-27 16:43 63.85695 -23.37664 21601 ft 257 kts 250°
2026-04-27 16:43 63.85418 -23.42163 22185 ft 258 kts 250°
2026-04-27 16:43 63.85142 -23.46684 22725 ft 259 kts 250°
2026-04-27 16:43 63.84894 -23.50722 23240 ft 260 kts 250°
2026-04-27 16:44 63.84616 -23.55178 23737 ft 263 kts 250°
2026-04-27 16:44 63.84345 -23.59573 24227 ft 267 kts 250°
2026-04-27 16:44 63.84069 -23.63935 24729 ft 268 kts 250°
2026-04-27 16:44 63.83784 -23.68443 25258 ft 270 kts 250°
2026-04-27 16:45 63.83512 -23.72789 25724 ft 273 kts 249°
2026-04-27 16:45 63.83219 -23.77340 26255 ft 273 kts 250°
2026-04-27 16:45 63.82920 -23.82038 26795 ft 274 kts 250°
2026-04-27 16:45 63.82647 -23.86347 27149 ft 279 kts 249°
2026-04-27 16:46 63.82330 -23.91201 27599 ft 281 kts 249°
2026-04-27 16:46 63.82008 -23.96183 28106 ft 283 kts 250°
2026-04-27 16:46 63.81717 -24.00642 28559 ft 285 kts 250°
2026-04-27 16:46 63.81399 -24.05449 29118 ft 285 kts 250°
2026-04-27 16:47 63.81090 -24.10239 29530 ft 289 kts 250°
2026-04-27 16:47 63.80774 -24.14947 29991 ft 290 kts 250°
2026-04-27 16:47 63.80446 -24.19900 30549 ft 288 kts 249°
2026-04-27 16:47 63.80145 -24.24413 31098 ft 285 kts 249°
2026-04-27 16:48 63.79824 -24.29273 31733 ft 280 kts 249°
2026-04-27 16:48 63.79484 -24.34222 32316 ft 276 kts 249°
2026-04-27 16:48 63.79196 -24.38508 32705 ft 277 kts 248°
2026-04-27 16:49 63.78541 -24.48072 33717 ft 272 kts 247°
2026-04-27 16:49 63.78247 -24.52249 34166 ft 269 kts 247°
2026-04-27 16:49 63.77947 -24.56623 34620 ft 265 kts 247°
2026-04-27 16:49 63.77621 -24.61240 34852 ft 268 kts 247°
2026-04-27 16:50 63.77321 -24.65519 35122 ft 270 kts 246°
2026-04-27 16:50 63.76982 -24.70282 35372 ft 272 kts 248°
2026-04-27 16:50 63.76682 -24.74555 35594 ft 273 kts 247°
2026-04-27 16:50 63.76359 -24.79099 35753 ft 275 kts 247°
2026-04-27 16:51 63.76014 -24.83953 35971 ft 277 kts 248°
2026-04-27 16:51 63.75696 -24.88336 36243 ft 276 kts 248°
2026-04-27 16:51 63.75359 -24.93037 36549 ft 277 kts 248°
2026-04-27 16:51 63.75002 -24.97964 36743 ft 281 kts 248°
2026-04-27 16:52 63.74685 -25.02381 36891 ft 285 kts 248°
2026-04-27 16:52 63.74346 -25.06979 37167 ft 285 kts 248°
2026-04-27 16:52 63.73989 -25.11845 37463 ft 285 kts 248°
2026-04-27 16:52 63.73657 -25.16381 37583 ft 289 kts 249°
2026-04-27 16:53 63.73287 -25.21407 37776 ft 292 kts 249°
2026-04-27 16:53 63.72943 -25.25990 38028 ft 291 kts 249°
2026-04-27 16:53 63.72589 -25.30743 38216 ft 293 kts 250°
2026-04-27 16:53 63.72233 -25.35503 38383 ft 295 kts 250°
2026-04-27 16:54 63.71882 -25.40118 38616 ft 295 kts 250°
2026-04-27 16:54 63.71523 -25.44901 38776 ft 296 kts 250°
2026-04-27 16:54 63.71161 -25.49671 38967 ft 296 kts 250°
2026-04-27 16:54 63.70807 -25.54247 39123 ft 297 kts 251°
2026-04-27 16:55 63.70445 -25.58988 39261 ft 299 kts 251°
2026-04-27 16:55 63.70086 -25.63665 39385 ft 300 kts 251°
2026-04-27 16:55 63.69705 -25.68568 39554 ft 301 kts 250°
2026-04-27 16:55 63.69322 -25.73485 39789 ft 298 kts 251°
2026-04-27 16:56 63.68963 -25.78059 39952 ft 298 kts 251°
2026-04-27 16:56 63.68585 -25.82880 40035 ft 300 kts 251°
2026-04-27 16:56 63.68208 -25.87679 40159 ft 302 kts 251°
2026-04-27 16:56 63.67826 -25.92526 40267 ft 303 kts 251°
2026-04-27 16:57 63.67446 -25.97260 40458 ft 302 kts 251°
2026-04-27 16:57 63.67077 -26.01926 40587 ft 302 kts 251°
2026-04-27 16:57 63.66685 -26.06791 40693 ft 303 kts 251°
2026-04-27 16:57 63.66292 -26.11668 40785 ft 305 kts 252°
2026-04-27 16:58 63.65912 -26.16346 40908 ft 305 kts 252°
2026-04-27 16:58 63.65520 -26.21168 41053 ft 305 kts 252°
2026-04-27 16:58 63.64725 -26.30895 41224 ft 308 kts 252°
2026-04-27 16:59 63.64326 -26.35692 41360 ft 306 kts 252°
2026-04-27 16:59 63.63942 -26.40376 41485 ft 306 kts 252°
2026-04-27 16:59 63.63150 -26.49859 41644 ft 308 kts 252°
2026-04-27 17:00 63.62481 -26.57817 41825 ft 308 kts 252°
2026-04-27 17:00 63.61948 -26.64146 41983 ft 307 kts 252°
2026-04-27 17:01 63.61116 -26.73911 42063 ft 311 kts 252°
2026-04-27 17:01 63.60704 -26.78734 42179 ft 310 kts 252°
2026-04-27 17:01 63.60275 -26.83700 42327 ft 309 kts 252°
2026-04-27 17:02 63.59438 -26.93385 42427 ft 311 kts 252°
2026-04-27 17:02 63.58573 -27.03304 42429 ft 318 kts 252°
2026-04-27 17:02 63.58349 -27.08505 42466 ft 327 kts 263°
2026-04-27 17:03 63.58294 -27.13754 42443 ft 329 kts 261°
2026-04-27 17:03 63.58089 -27.24441 42425 ft 335 kts 261°
2026-04-27 17:04 63.57878 -27.35157 42415 ft 342 kts 261°
2026-04-27 17:04 63.57648 -27.46127 42397 ft 347 kts 261°
2026-04-27 17:05 63.57403 -27.57479 42399 ft 353 kts 261°
2026-04-27 17:05 63.57140 -27.69143 42395 ft 359 kts 260°
2026-04-27 17:06 63.56868 -27.80903 42378 ft 365 kts 260°
2026-04-27 17:06 63.56579 -27.92807 42370 ft 370 kts 260°
2026-04-27 17:07 63.56279 -28.05007 42373 ft 375 kts 260°
2026-04-27 17:07 63.55957 -28.17347 42372 ft 379 kts 261°
2026-04-27 17:08 63.55629 -28.29705 42353 ft 384 kts 261°
2026-04-27 17:08 63.55288 -28.42072 42349 ft 388 kts 261°
2026-04-27 17:09 63.54930 -28.54699 42348 ft 392 kts 261°
2026-04-27 17:09 63.54557 -28.67480 42345 ft 396 kts 259°
2026-04-27 17:10 63.54170 -28.80324 42331 ft 399 kts 260°
2026-04-27 17:10 63.53766 -28.93247 42317 ft 403 kts 260°
2026-04-27 17:11 63.53332 -29.06789 42310 ft 406 kts 260°
2026-04-27 17:11 63.52682 -29.26452 42306 ft 410 kts 260°
2026-04-27 17:12 63.51988 -29.46520 42306 ft 410 kts 261°
2026-04-27 17:13 63.51510 -29.59886 42283 ft 409 kts 260°
2026-04-27 17:13 63.51022 -29.73176 42286 ft 409 kts 259°
2026-04-27 17:14 63.50512 -29.86731 42276 ft 411 kts 259°
2026-04-27 17:14 63.49924 -30.00037 42264 ft 407 kts 252°
2026-04-27 17:15 63.48078 -30.12494 42287 ft 403 kts 246°
2026-04-27 17:15 63.46155 -30.24944 42272 ft 404 kts 246°